WMT3XY LIRF-LCLK

Flight info

Callsign WMT3XY
Flight time 2h 27m
Altitude 35000
Route PEPIX L50 UNIXO DCT RUTOM DCT TRL DCT EVENO DCT DASNI DCT BONEK
Aircraft A21N/M-SDE1E2E3FGIJ4RWXY/LB1

Departure

Time 2026-02-17 03:04
Airport Rome–Fiumicino Leonardo da Vinci International Airport (LIRF)

Arrival

Time 2026-02-17 05:32
Airport Larnaca International Airport (LCLK)
Time Latitude Longitude Altitude Speed Heading
2026-02-17 02:45 41.79392 12.24619 17 ft 0 kts 346°
2026-02-17 02:50 41.79389 12.24620 17 ft 2 kts 346°
2026-02-17 02:50 41.79371 12.24626 17 ft 3 kts 346°
2026-02-17 02:51 41.79335 12.24647 19 ft 3 kts 311°
2026-02-17 02:51 41.79326 12.24668 20 ft 3 kts 272°
2026-02-17 02:51 41.79326 12.24679 20 ft 1 kts 258°
2026-02-17 02:51 41.79324 12.24663 20 ft 3 kts 258°
2026-02-17 02:52 41.79320 12.24637 19 ft 3 kts 258°
2026-02-17 02:52 41.79312 12.24584 17 ft 3 kts 258°
2026-02-17 02:52 41.79308 12.24557 19 ft 3 kts 258°
2026-02-17 02:53 41.79304 12.24530 17 ft 3 kts 258°
2026-02-17 02:53 41.79300 12.24504 17 ft 3 kts 258°
2026-02-17 02:53 41.79298 12.24490 17 ft 0 kts 258°
2026-02-17 02:55 41.79298 12.24489 17 ft 0 kts 258°
2026-02-17 02:55 41.79296 12.24461 17 ft 6 kts 275°
2026-02-17 02:55 41.79322 12.24397 17 ft 10 kts 304°
2026-02-17 02:55 41.79346 12.24314 17 ft 10 kts 264°
2026-02-17 02:56 41.79325 12.24232 17 ft 9 kts 250°
2026-02-17 02:56 41.79303 12.24151 17 ft 9 kts 250°
2026-02-17 02:56 41.79307 12.24071 17 ft 9 kts 313°
2026-02-17 02:56 41.79366 12.24030 19 ft 11 kts 335°
2026-02-17 02:57 41.79442 12.23989 19 ft 13 kts 340°
2026-02-17 02:57 41.79530 12.23946 17 ft 14 kts 340°
2026-02-17 02:57 41.79619 12.23902 17 ft 14 kts 340°
2026-02-17 02:57 41.79699 12.23900 17 ft 11 kts 41°
2026-02-17 02:58 41.79738 12.24013 17 ft 17 kts 70°
2026-02-17 02:58 41.79780 12.24163 17 ft 17 kts 70°
2026-02-17 02:58 41.79829 12.24282 17 ft 12 kts 23°
2026-02-17 02:59 41.79985 12.24224 17 ft 12 kts 349°
2026-02-17 02:59 41.80044 12.24282 16 ft 13 kts 67°
2026-02-17 02:59 41.80081 12.24418 17 ft 18 kts 70°
2026-02-17 02:59 41.80129 12.24588 16 ft 22 kts 69°
2026-02-17 03:00 41.80185 12.24791 17 ft 24 kts 70°
2026-02-17 03:00 41.80205 12.25011 17 ft 24 kts 88°
2026-02-17 03:00 41.80249 12.25226 18 ft 24 kts 70°
2026-02-17 03:00 41.80306 12.25434 21 ft 23 kts 70°
2026-02-17 03:01 41.80363 12.25640 20 ft 24 kts 69°
2026-02-17 03:01 41.80421 12.25850 19 ft 24 kts 70°
2026-02-17 03:01 41.80484 12.26076 18 ft 28 kts 70°
2026-02-17 03:01 41.80549 12.26314 21 ft 27 kts 70°
2026-02-17 03:02 41.80616 12.26555 19 ft 28 kts 69°
2026-02-17 03:02 41.80682 12.26795 17 ft 24 kts 70°
2026-02-17 03:02 41.80723 12.26948 18 ft 16 kts 69°
2026-02-17 03:03 41.80860 12.27016 16 ft 12 kts 340°
2026-02-17 03:03 41.80938 12.26978 16 ft 10 kts 340°
2026-02-17 03:03 41.80962 12.26940 15 ft 4 kts 253°
2026-02-17 03:03 41.80953 12.26908 16 ft 13 kts 249°
2026-02-17 03:04 41.80848 12.26525 20 ft 74 kts 250°
2026-02-17 03:04 41.80589 12.25596 19 ft 138 kts 249°
2026-02-17 03:04 41.80187 12.24275 307 ft 157 kts 256°
2026-02-17 03:04 41.79813 12.22925 965 ft 156 kts 259°
2026-02-17 03:05 41.79467 12.21511 1536 ft 160 kts 265°
2026-02-17 03:05 41.79299 12.19970 1940 ft 178 kts 275°
2026-02-17 03:05 41.79248 12.18244 2523 ft 190 kts 276°
2026-02-17 03:05 41.79183 12.16467 3252 ft 198 kts 271°
2026-02-17 03:06 41.78702 12.14663 3946 ft 217 kts 244°
2026-02-17 03:06 41.77668 12.13101 4614 ft 229 kts 230°
2026-02-17 03:06 41.76480 12.11640 5310 ft 233 kts 228°
2026-02-17 03:07 41.74071 12.08746 6771 ft 235 kts 231°
2026-02-17 03:07 41.72645 12.07455 7107 ft 268 kts 210°
2026-02-17 03:07 41.70677 12.07025 7421 ft 304 kts 179°
2026-02-17 03:07 41.68547 12.07362 8252 ft 310 kts 173°
2026-02-17 03:08 41.67135 12.07673 8969 ft 310 kts 172°
2026-02-17 03:08 41.64984 12.08166 9807 ft 318 kts 173°
2026-02-17 03:08 41.62718 12.08677 10205 ft 342 kts 173°
2026-02-17 03:08 41.60307 12.09212 10715 ft 359 kts 173°
2026-02-17 03:09 41.57803 12.09766 11405 ft 371 kts 173°
2026-02-17 03:09 41.55230 12.10333 12239 ft 377 kts 174°
2026-02-17 03:09 41.52604 12.10907 13016 ft 386 kts 174°
2026-02-17 03:09 41.49940 12.11490 13822 ft 390 kts 174°
2026-02-17 03:10 41.47274 12.12073 14609 ft 394 kts 175°
2026-02-17 03:10 41.44546 12.12668 15376 ft 398 kts 175°
2026-02-17 03:10 41.41790 12.13268 16127 ft 403 kts 175°
2026-02-17 03:11 41.36229 12.14476 17625 ft 411 kts 176°
2026-02-17 03:11 41.33390 12.15092 18239 ft 416 kts 177°
2026-02-17 03:11 41.30509 12.15716 18792 ft 422 kts 177°
2026-02-17 03:11 41.27583 12.16348 19354 ft 428 kts 178°
2026-02-17 03:12 41.24623 12.16987 19914 ft 434 kts 178°
2026-02-17 03:12 41.21651 12.17629 20464 ft 439 kts 178°
2026-02-17 03:12 41.18612 12.18482 21010 ft 451 kts 169°
2026-02-17 03:12 41.15659 12.20109 21527 ft 467 kts 154°
2026-02-17 03:13 41.12974 12.22623 22022 ft 477 kts 143°
2026-02-17 03:13 41.10482 12.25510 22341 ft 488 kts 139°
2026-02-17 03:13 41.08001 12.28684 22571 ft 499 kts 136°
2026-02-17 03:13 41.05540 12.31972 23041 ft 505 kts 135°
2026-02-17 03:14 41.03056 12.35310 23432 ft 510 kts 135°
2026-02-17 03:14 41.00531 12.38670 23833 ft 514 kts 136°
2026-02-17 03:14 40.98010 12.41980 24272 ft 516 kts 137°
2026-02-17 03:15 40.92881 12.48603 25270 ft 517 kts 137°
2026-02-17 03:15 40.90276 12.51933 25577 ft 522 kts 137°
2026-02-17 03:15 40.87684 12.55237 25904 ft 526 kts 137°
2026-02-17 03:15 40.85021 12.58626 26011 ft 536 kts 138°
2026-02-17 03:16 40.82313 12.62070 26258 ft 541 kts 138°
2026-02-17 03:16 40.79661 12.65620 26629 ft 545 kts 131°
2026-02-17 03:16 40.75648 12.74058 27285 ft 548 kts 112°
2026-02-17 03:17 40.74045 12.78631 27659 ft 550 kts 110°
2026-02-17 03:17 40.72542 12.83263 28140 ft 548 kts 109°
2026-02-17 03:17 40.71075 12.87931 28440 ft 551 kts 109°
2026-02-17 03:17 40.69609 12.92635 28680 ft 555 kts 109°
2026-02-17 03:18 40.68127 12.97360 28964 ft 559 kts 109°
2026-02-17 03:18 40.66645 13.02035 29229 ft 562 kts 109°
2026-02-17 03:18 40.65122 13.06791 29558 ft 564 kts 109°
2026-02-17 03:19 40.62036 13.16325 30285 ft 563 kts 110°
2026-02-17 03:19 40.60516 13.20990 30715 ft 560 kts 110°
2026-02-17 03:19 40.58977 13.25708 31014 ft 560 kts 110°
2026-02-17 03:19 40.57431 13.30444 31241 ft 562 kts 110°
2026-02-17 03:20 40.55877 13.35202 31304 ft 568 kts 110°
2026-02-17 03:20 40.54326 13.39947 31513 ft 570 kts 110°
2026-02-17 03:20 40.52756 13.44735 31841 ft 569 kts 110°
2026-02-17 03:20 40.51188 13.49508 32144 ft 569 kts 110°
2026-02-17 03:21 40.49616 13.54287 32499 ft 567 kts 110°
2026-02-17 03:21 40.48049 13.59040 32814 ft 566 kts 110°
2026-02-17 03:21 40.46481 13.63790 33064 ft 567 kts 110°
2026-02-17 03:21 40.44909 13.68547 33287 ft 568 kts 110°
2026-02-17 03:22 40.43351 13.73252 33528 ft 568 kts 110°
2026-02-17 03:22 40.41770 13.78018 33761 ft 568 kts 110°
2026-02-17 03:22 40.40191 13.82768 34032 ft 566 kts 111°
2026-02-17 03:23 40.37053 13.92186 34528 ft 559 kts 112°
2026-02-17 03:23 40.35497 13.96843 34544 ft 556 kts 112°
2026-02-17 03:23 40.32403 14.06083 34544 ft 555 kts 112°
2026-02-17 03:24 40.29284 14.15369 34544 ft 555 kts 112°
2026-02-17 03:24 40.26181 14.24581 34550 ft 554 kts 112°
2026-02-17 03:25 40.23073 14.33771 34517 ft 550 kts 112°
2026-02-17 03:25 40.19943 14.43001 34547 ft 558 kts 112°
2026-02-17 03:26 40.16802 14.52233 34556 ft 558 kts 112°
2026-02-17 03:27 40.12048 14.66141 34556 ft 558 kts 112°
2026-02-17 03:27 40.08890 14.75343 34556 ft 558 kts 112°
2026-02-17 03:28 40.05704 14.84601 34560 ft 558 kts 112°
2026-02-17 03:28 40.02513 14.93842 34600 ft 557 kts 113°
2026-02-17 03:29 39.99353 15.02960 34562 ft 553 kts 113°
2026-02-17 03:29 39.96182 15.12084 34570 ft 552 kts 113°
2026-02-17 03:30 39.93004 15.21199 34568 ft 552 kts 113°
2026-02-17 03:30 39.89836 15.30257 34564 ft 552 kts 114°
2026-02-17 03:31 39.85044 15.43904 34569 ft 553 kts 113°
2026-02-17 03:31 39.81828 15.53027 34570 ft 554 kts 114°
2026-02-17 03:32 39.78623 15.62089 34570 ft 554 kts 114°
2026-02-17 03:32 39.75386 15.71214 34577 ft 555 kts 114°
2026-02-17 03:33 39.72161 15.80277 34568 ft 555 kts 114°
2026-02-17 03:33 39.68909 15.89387 34573 ft 555 kts 114°
2026-02-17 03:34 39.65649 15.98495 34564 ft 555 kts 114°
2026-02-17 03:35 39.60800 16.11978 34558 ft 546 kts 114°
2026-02-17 03:35 39.57574 16.20917 34558 ft 545 kts 114°
2026-02-17 03:36 39.54370 16.29768 34562 ft 545 kts 114°
2026-02-17 03:36 39.51139 16.38667 34546 ft 544 kts 114°
2026-02-17 03:37 39.47921 16.47505 34549 ft 544 kts 114°
2026-02-17 03:37 39.44681 16.56373 34545 ft 544 kts 114°
2026-02-17 03:38 39.41455 16.65177 34528 ft 544 kts 115°
2026-02-17 03:38 39.38204 16.74029 34526 ft 543 kts 115°
2026-02-17 03:39 39.33365 16.87148 34516 ft 540 kts 115°
2026-02-17 03:39 39.30126 16.95898 34517 ft 539 kts 116°
2026-02-17 03:40 39.26874 17.04656 34515 ft 539 kts 116°
2026-02-17 03:40 39.23625 17.13382 34517 ft 539 kts 116°
2026-02-17 03:41 39.20387 17.22052 34524 ft 539 kts 116°
2026-02-17 03:41 39.17119 17.30776 34523 ft 539 kts 116°
2026-02-17 03:42 39.13846 17.39492 34540 ft 541 kts 117°
2026-02-17 03:43 39.08942 17.52499 34543 ft 539 kts 117°
2026-02-17 03:43 39.05655 17.61184 34551 ft 539 kts 117°
2026-02-17 03:44 39.02362 17.69862 34548 ft 539 kts 117°
2026-02-17 03:44 38.99087 17.78468 34556 ft 538 kts 117°
2026-02-17 03:45 38.95788 17.87113 34564 ft 537 kts 117°
2026-02-17 03:45 38.92482 17.95750 34561 ft 537 kts 117°
2026-02-17 03:46 38.89198 18.04307 34563 ft 537 kts 117°
2026-02-17 03:46 38.85886 18.12909 34576 ft 537 kts 117°
2026-02-17 03:47 38.80905 18.25804 34581 ft 537 kts 117°
2026-02-17 03:47 38.77602 18.34324 34577 ft 538 kts 117°
2026-02-17 03:48 38.74260 18.42919 34570 ft 539 kts 117°
2026-02-17 03:49 38.69255 18.55749 34591 ft 536 kts 117°
2026-02-17 03:49 38.65908 18.64301 34595 ft 536 kts 117°
2026-02-17 03:50 38.62574 18.72793 34597 ft 536 kts 117°
2026-02-17 03:50 38.59215 18.81325 34599 ft 535 kts 117°
2026-02-17 03:51 38.54205 18.94009 34609 ft 534 kts 117°
2026-02-17 03:51 38.50922 19.02548 34615 ft 534 kts 114°
2026-02-17 03:52 38.48112 19.11279 34610 ft 534 kts 111°
2026-02-17 03:52 38.45410 19.20135 34614 ft 533 kts 111°
2026-02-17 03:53 38.42692 19.28881 34616 ft 532 kts 111°
2026-02-17 03:53 38.39917 19.37642 34617 ft 532 kts 112°
2026-02-17 03:54 38.37121 19.46388 34622 ft 533 kts 112°
2026-02-17 03:55 38.32913 19.59500 34619 ft 534 kts 112°
2026-02-17 03:55 38.30096 19.68253 34621 ft 534 kts 112°
2026-02-17 03:56 38.27263 19.77027 34617 ft 534 kts 112°
2026-02-17 03:56 38.24451 19.85714 34621 ft 532 kts 112°
2026-02-17 03:57 38.21621 19.94425 34624 ft 532 kts 112°
2026-02-17 03:57 38.18802 20.03078 34633 ft 531 kts 112°
2026-02-17 03:58 38.16442 20.10303 34635 ft 531 kts 112°
2026-02-17 03:58 38.13596 20.18987 34632 ft 530 kts 112°
2026-02-17 03:59 38.09346 20.31911 34639 ft 530 kts 112°
2026-02-17 03:59 38.06497 20.40542 34644 ft 529 kts 112°
2026-02-17 04:00 38.03644 20.49159 34646 ft 529 kts 112°
2026-02-17 04:00 38.00797 20.57734 34653 ft 528 kts 112°
2026-02-17 04:01 37.97936 20.66324 34658 ft 528 kts 112°
2026-02-17 04:01 37.95085 20.74860 34664 ft 528 kts 113°
2026-02-17 04:02 37.92214 20.83431 34669 ft 528 kts 113°
2026-02-17 04:03 37.87898 20.96263 34674 ft 528 kts 113°
2026-02-17 04:03 37.85014 21.04809 34679 ft 527 kts 113°
2026-02-17 04:04 37.82140 21.13302 34664 ft 527 kts 113°
2026-02-17 04:04 37.79242 21.21839 34670 ft 526 kts 113°
2026-02-17 04:05 37.76363 21.30298 34674 ft 526 kts 113°
2026-02-17 04:05 37.73457 21.38809 34674 ft 526 kts 113°
2026-02-17 04:06 37.70551 21.47297 34683 ft 526 kts 113°
2026-02-17 04:06 37.67656 21.55727 34705 ft 526 kts 113°
2026-02-17 04:07 37.63286 21.68407 34708 ft 526 kts 113°
2026-02-17 04:07 37.60357 21.76877 34707 ft 526 kts 113°
2026-02-17 04:08 37.57440 21.85287 34712 ft 524 kts 113°
2026-02-17 04:08 37.54511 21.93710 34716 ft 523 kts 114°
2026-02-17 04:09 37.51583 22.02106 34719 ft 523 kts 114°
2026-02-17 04:09 37.48670 22.10433 34719 ft 523 kts 114°
2026-02-17 04:10 37.45733 22.18810 34719 ft 519 kts 114°
2026-02-17 04:11 37.41379 22.31198 34715 ft 516 kts 112°
2026-02-17 04:11 37.38596 22.44189 34713 ft 514 kts 101°
2026-02-17 04:12 37.37100 22.53002 34704 ft 513 kts 100°
2026-02-17 04:12 37.35628 22.61795 34699 ft 513 kts 100°
2026-02-17 04:13 37.34141 22.70524 34697 ft 513 kts 100°
2026-02-17 04:13 37.32624 22.79322 34703 ft 513 kts 101°
2026-02-17 04:14 37.31106 22.88050 34688 ft 514 kts 101°
2026-02-17 04:15 37.28802 23.01223 34685 ft 514 kts 101°
2026-02-17 04:15 37.27271 23.09934 34686 ft 514 kts 101°
2026-02-17 04:16 37.25727 23.18679 34684 ft 510 kts 101°
2026-02-17 04:16 37.24196 23.27310 34680 ft 509 kts 101°
2026-02-17 04:17 37.22649 23.35996 34684 ft 509 kts 101°
2026-02-17 04:17 37.21105 23.44625 34667 ft 508 kts 102°
2026-02-17 04:18 37.19560 23.53222 34689 ft 503 kts 102°
2026-02-17 04:18 37.18009 23.61805 34689 ft 502 kts 102°
2026-02-17 04:19 37.15692 23.74567 34693 ft 502 kts 102°
2026-02-17 04:19 37.14142 23.83063 34697 ft 496 kts 103°
2026-02-17 04:20 37.12599 23.91476 34703 ft 495 kts 103°
2026-02-17 04:20 37.11060 23.99836 34703 ft 495 kts 103°
2026-02-17 04:21 37.09505 24.08250 34710 ft 495 kts 103°
2026-02-17 04:21 37.07946 24.16646 34710 ft 494 kts 103°
2026-02-17 04:22 37.06381 24.25039 34711 ft 494 kts 103°
2026-02-17 04:23 37.04032 24.37573 34716 ft 494 kts 104°
2026-02-17 04:23 37.02453 24.45959 34724 ft 494 kts 104°
2026-02-17 04:24 37.00871 24.54325 34725 ft 494 kts 104°
2026-02-17 04:24 36.99291 24.62637 34725 ft 493 kts 104°
2026-02-17 04:25 36.97696 24.71001 34730 ft 494 kts 104°
2026-02-17 04:25 36.96096 24.79357 34738 ft 493 kts 104°
2026-02-17 04:26 36.94497 24.87674 34750 ft 493 kts 104°
2026-02-17 04:26 36.92880 24.96046 34743 ft 494 kts 104°
2026-02-17 04:27 36.90467 25.08488 34745 ft 490 kts 105°
2026-02-17 04:27 36.88855 25.16756 34747 ft 488 kts 105°
2026-02-17 04:28 36.87248 25.24956 34741 ft 488 kts 105°
2026-02-17 04:28 36.85622 25.33223 34727 ft 488 kts 106°
2026-02-17 04:29 36.84007 25.41409 34748 ft 487 kts 106°
2026-02-17 04:29 36.82381 25.49621 34748 ft 487 kts 106°
2026-02-17 04:30 36.80755 25.57794 34755 ft 487 kts 106°
2026-02-17 04:31 36.78297 25.70098 34757 ft 486 kts 107°
2026-02-17 04:31 36.76653 25.78286 34764 ft 485 kts 107°
2026-02-17 04:32 36.75015 25.86403 34764 ft 485 kts 107°
2026-02-17 04:32 36.73371 25.94530 34767 ft 485 kts 107°
2026-02-17 04:33 36.71714 26.02692 34772 ft 485 kts 108°
2026-02-17 04:33 36.70050 26.10850 34775 ft 485 kts 108°
2026-02-17 04:34 36.68392 26.18954 34780 ft 485 kts 108°
2026-02-17 04:34 36.66716 26.27113 34773 ft 485 kts 108°
2026-02-17 04:35 36.64209 26.39264 34788 ft 484 kts 108°
2026-02-17 04:35 36.62523 26.47391 34787 ft 484 kts 109°
2026-02-17 04:36 36.60832 26.55518 34794 ft 484 kts 109°
2026-02-17 04:36 36.59147 26.63587 34797 ft 484 kts 109°
2026-02-17 04:37 36.57445 26.71705 34799 ft 484 kts 109°
2026-02-17 04:37 36.55752 26.79750 34804 ft 484 kts 109°
2026-02-17 04:38 36.54039 26.87862 34788 ft 484 kts 110°
2026-02-17 04:39 36.51464 26.99995 34813 ft 483 kts 110°
2026-02-17 04:39 36.49749 27.08044 34812 ft 483 kts 110°
2026-02-17 04:40 36.48021 27.16125 34813 ft 483 kts 110°
2026-02-17 04:40 36.46290 27.24197 34811 ft 483 kts 111°
2026-02-17 04:41 36.44559 27.32231 34806 ft 483 kts 111°
2026-02-17 04:41 36.42815 27.40295 34810 ft 483 kts 111°
2026-02-17 04:42 36.41066 27.48361 34781 ft 483 kts 111°
2026-02-17 04:42 36.39321 27.56376 34808 ft 483 kts 111°
2026-02-17 04:43 36.36687 27.68416 34803 ft 483 kts 112°
2026-02-17 04:43 36.34923 27.76449 34800 ft 483 kts 112°
2026-02-17 04:44 36.33151 27.84489 34805 ft 483 kts 112°
2026-02-17 04:44 36.31371 27.92537 34805 ft 483 kts 112°
2026-02-17 04:45 36.29598 28.00529 34805 ft 483 kts 112°
2026-02-17 04:45 36.27809 28.08561 34786 ft 483 kts 112°
2026-02-17 04:46 36.26024 28.16548 34807 ft 483 kts 112°
2026-02-17 04:47 36.23314 28.28621 34816 ft 483 kts 112°
2026-02-17 04:47 36.21519 28.36586 34817 ft 483 kts 112°
2026-02-17 04:48 36.19715 28.44566 34825 ft 482 kts 114°
2026-02-17 04:48 36.17897 28.52576 34827 ft 482 kts 114°
2026-02-17 04:49 36.16382 28.59230 34837 ft 482 kts 114°
2026-02-17 04:49 36.14259 28.68522 34827 ft 482 kts 114°
2026-02-17 04:50 36.12729 28.75200 34840 ft 480 kts 114°
2026-02-17 04:50 36.10915 28.83096 34851 ft 480 kts 114°
2026-02-17 04:51 36.08160 28.95026 34856 ft 480 kts 114°
2026-02-17 04:51 36.06335 29.02903 34855 ft 478 kts 115°
2026-02-17 04:52 36.04497 29.10809 34866 ft 477 kts 115°
2026-02-17 04:52 36.02657 29.18688 34865 ft 477 kts 115°
2026-02-17 04:53 36.00807 29.26589 34830 ft 477 kts 116°
2026-02-17 04:53 35.98969 29.34416 34867 ft 477 kts 116°
2026-02-17 04:54 35.97115 29.42284 34871 ft 477 kts 116°
2026-02-17 04:55 35.94324 29.54080 34845 ft 476 kts 116°
2026-02-17 04:55 35.92457 29.61938 34867 ft 477 kts 117°
2026-02-17 04:56 35.90590 29.69775 34865 ft 477 kts 117°
2026-02-17 04:56 35.88709 29.77641 34863 ft 477 kts 117°
2026-02-17 04:57 35.86837 29.85448 34856 ft 478 kts 118°
2026-02-17 04:57 35.84941 29.93324 34870 ft 478 kts 118°
2026-02-17 04:58 35.83035 30.01200 34868 ft 478 kts 118°
2026-02-17 04:58 35.81088 30.09000 34865 ft 478 kts 118°
2026-02-17 04:59 35.78113 30.20748 34870 ft 478 kts 119°
2026-02-17 04:59 35.76139 30.28528 34872 ft 478 kts 119°
2026-02-17 05:00 35.74148 30.36360 34875 ft 478 kts 119°
2026-02-17 05:00 35.72170 30.44133 34873 ft 478 kts 120°
2026-02-17 05:01 35.70177 30.51943 34879 ft 477 kts 120°
2026-02-17 05:01 35.68179 30.59739 34878 ft 477 kts 120°
2026-02-17 05:02 35.66192 30.67472 34881 ft 477 kts 120°
2026-02-17 05:03 35.63178 30.79153 34884 ft 477 kts 120°
2026-02-17 05:03 35.61176 30.86940 34884 ft 478 kts 120°
2026-02-17 05:04 35.59224 30.94711 34884 ft 478 kts 120°
2026-02-17 05:04 35.57261 31.02516 34887 ft 477 kts 119°
2026-02-17 05:05 35.55308 31.10255 34890 ft 476 kts 120°
2026-02-17 05:05 35.53338 31.18031 34888 ft 476 kts 120°
2026-02-17 05:06 35.51366 31.25794 34853 ft 476 kts 120°
2026-02-17 05:06 35.49396 31.33522 34902 ft 477 kts 120°
2026-02-17 05:07 35.46414 31.45179 34898 ft 477 kts 120°
2026-02-17 05:07 35.44421 31.52943 34860 ft 477 kts 121°
2026-02-17 05:08 35.42424 31.60699 34900 ft 477 kts 121°
2026-02-17 05:08 35.40431 31.68414 34901 ft 477 kts 121°
2026-02-17 05:09 35.39429 31.72289 34701 ft 475 kts 121°
2026-02-17 05:09 35.38427 31.76157 34466 ft 474 kts 121°
2026-02-17 05:09 35.37429 31.79999 34192 ft 474 kts 121°
2026-02-17 05:09 35.36430 31.83847 33973 ft 472 kts 122°
2026-02-17 05:10 35.35434 31.87675 33713 ft 469 kts 122°
2026-02-17 05:10 35.34447 31.91470 33419 ft 464 kts 122°
2026-02-17 05:10 35.33488 31.95159 32930 ft 458 kts 122°
2026-02-17 05:11 35.31552 32.02555 31751 ft 452 kts 121°
2026-02-17 05:11 35.30592 32.06212 31172 ft 449 kts 121°
2026-02-17 05:11 35.29635 32.09854 30565 ft 446 kts 122°
2026-02-17 05:11 35.28697 32.13421 30014 ft 443 kts 122°
2026-02-17 05:12 35.27754 32.17000 29345 ft 440 kts 121°
2026-02-17 05:12 35.26816 32.20557 28746 ft 436 kts 121°
2026-02-17 05:12 35.25888 32.24076 28164 ft 432 kts 121°
2026-02-17 05:12 35.24978 32.27518 27587 ft 428 kts 121°
2026-02-17 05:13 35.24061 32.30980 27019 ft 425 kts 120°
2026-02-17 05:13 35.23151 32.34410 26431 ft 422 kts 120°
2026-02-17 05:13 35.22248 32.37815 25829 ft 419 kts 121°
2026-02-17 05:13 35.21350 32.41192 25267 ft 416 kts 121°
2026-02-17 05:14 35.20455 32.44551 24688 ft 414 kts 120°
2026-02-17 05:14 35.19560 32.47907 24111 ft 412 kts 120°
2026-02-17 05:14 35.18683 32.51192 23535 ft 408 kts 119°
2026-02-17 05:15 35.16963 32.57658 22312 ft 391 kts 119°
2026-02-17 05:15 35.16129 32.60788 21759 ft 381 kts 119°
2026-02-17 05:15 35.15314 32.63841 21201 ft 374 kts 120°
2026-02-17 05:15 35.14504 32.66846 20703 ft 370 kts 120°
2026-02-17 05:16 35.13709 32.69791 20171 ft 368 kts 119°
2026-02-17 05:16 35.12908 32.72758 19636 ft 366 kts 119°
2026-02-17 05:16 35.12112 32.75708 19099 ft 364 kts 118°
2026-02-17 05:16 35.11320 32.78635 18574 ft 362 kts 118°
2026-02-17 05:17 35.10533 32.81547 18034 ft 360 kts 117°
2026-02-17 05:17 35.09751 32.84446 17465 ft 357 kts 117°
2026-02-17 05:17 35.08978 32.87309 16955 ft 353 kts 117°
2026-02-17 05:17 35.08221 32.90113 16417 ft 349 kts 118°
2026-02-17 05:18 35.07459 32.92918 16021 ft 345 kts 118°
2026-02-17 05:18 35.06678 32.95686 15617 ft 344 kts 118°
2026-02-17 05:18 35.05885 32.98450 15129 ft 344 kts 118°
2026-02-17 05:19 35.04309 33.03923 14282 ft 342 kts 118°
2026-02-17 05:19 35.03520 33.06666 13857 ft 341 kts 117°
2026-02-17 05:19 35.02731 33.09405 13402 ft 340 kts 117°
2026-02-17 05:19 35.01958 33.12086 12981 ft 338 kts 117°
2026-02-17 05:20 35.01178 33.14791 12568 ft 336 kts 117°
2026-02-17 05:20 35.00406 33.17467 12148 ft 334 kts 116°
2026-02-17 05:20 34.99635 33.20137 11742 ft 333 kts 116°
2026-02-17 05:20 34.98866 33.22798 11338 ft 331 kts 116°
2026-02-17 05:21 34.98104 33.25433 10931 ft 328 kts 116°
2026-02-17 05:21 34.96601 33.30627 10269 ft 323 kts 116°
2026-02-17 05:21 34.95868 33.33163 10006 ft 313 kts 116°
2026-02-17 05:22 34.95142 33.35660 9499 ft 311 kts 116°
2026-02-17 05:22 34.94424 33.38126 9079 ft 306 kts 116°
2026-02-17 05:22 34.93719 33.40551 8683 ft 301 kts 115°
2026-02-17 05:23 34.92321 33.45336 7949 ft 297 kts 115°
2026-02-17 05:23 34.91639 33.47670 7590 ft 295 kts 114°
2026-02-17 05:23 34.90954 33.50019 7224 ft 293 kts 114°
2026-02-17 05:23 34.90271 33.52355 6872 ft 291 kts 114°
2026-02-17 05:24 34.89595 33.54668 6492 ft 288 kts 114°
2026-02-17 05:24 34.88925 33.56959 6134 ft 286 kts 113°
2026-02-17 05:24 34.88260 33.59230 5784 ft 283 kts 113°
2026-02-17 05:24 34.87695 33.61533 5421 ft 284 kts 101°
2026-02-17 05:25 34.87785 33.63896 5092 ft 285 kts 77°
2026-02-17 05:25 34.88434 33.66165 4810 ft 280 kts 69°
2026-02-17 05:25 34.89167 33.68296 4650 ft 266 kts 68°
2026-02-17 05:25 34.89877 33.70328 4494 ft 254 kts 69°
2026-02-17 05:26 34.90554 33.72287 4104 ft 250 kts 69°
2026-02-17 05:26 34.91215 33.74220 3800 ft 242 kts 69°
2026-02-17 05:26 34.91841 33.76062 3655 ft 227 kts 69°
2026-02-17 05:27 34.93424 33.79027 3335 ft 201 kts 33°
2026-02-17 05:27 34.94715 33.79551 3083 ft 196 kts
2026-02-17 05:27 34.96025 33.79227 2805 ft 192 kts 331°
2026-02-17 05:27 34.97014 33.78190 2550 ft 187 kts 303°
2026-02-17 05:28 34.97473 33.76755 2337 ft 184 kts 276°
2026-02-17 05:28 34.97341 33.75223 2161 ft 183 kts 251°
2026-02-17 05:28 34.96753 33.73854 2033 ft 183 kts 233°
2026-02-17 05:28 34.95883 33.72729 1891 ft 183 kts 224°
2026-02-17 05:29 34.94971 33.71653 1754 ft 180 kts 226°
2026-02-17 05:29 34.94121 33.70611 1560 ft 166 kts 226°
2026-02-17 05:29 34.93338 33.69654 1345 ft 154 kts 226°
2026-02-17 05:29 34.92595 33.68748 1153 ft 146 kts 225°
2026-02-17 05:30 34.91889 33.67889 981 ft 144 kts 226°
2026-02-17 05:30 34.91176 33.67018 806 ft 146 kts 226°
2026-02-17 05:30 34.90460 33.66146 630 ft 144 kts 225°
2026-02-17 05:31 34.89047 33.64431 292 ft 143 kts 224°
2026-02-17 05:31 34.88345 33.63579 107 ft 142 kts 224°
2026-02-17 05:31 34.87678 33.62765 26 ft 125 kts 225°
2026-02-17 05:31 34.87191 33.62169 27 ft 73 kts 225°
2026-02-17 05:32 34.86996 33.61879 25 ft 27 kts 244°
2026-02-17 05:32 34.86954 33.61715 27 ft 15 kts 255°
2026-02-17 05:32 34.86928 33.61598 22 ft 14 kts 256°
2026-02-17 05:32 34.86909 33.61507 22 ft 10 kts 255°
2026-02-17 05:33 34.86884 33.61424 22 ft 11 kts 254°
2026-02-17 05:33 34.86906 33.61354 20 ft 9 kts 316°
2026-02-17 05:33 34.86947 33.61305 23 ft 6 kts 315°
2026-02-17 05:33 34.86980 33.61265 23 ft 7 kts 315°
2026-02-17 05:34 34.87020 33.61217 26 ft 9 kts 315°
2026-02-17 05:34 34.87067 33.61161 23 ft 10 kts 316°
2026-02-17 05:34 34.87120 33.61098 23 ft 10 kts 315°
2026-02-17 05:35 34.87143 33.61031 23 ft 4 kts 230°
2026-02-17 05:35 34.87123 33.61004 25 ft 3 kts 227°
2026-02-17 05:35 34.87112 33.60991 25 ft 1 kts 225°
2026-02-17 05:35 34.87110 33.60988 23 ft 0 kts 225°